Regional Weather Roundup
Issued by NWS

Home | Current Version | Previous Version | Text Only | Print | Product List | Glossary On
Versions: 1 2 3 4 5 6 7 8 9 10 11 12 13 14 15 16 17 18 19 20 21 22 23 24 25 26 27 28 29 30 31 32 33 34 35 36 37 38 39 40 41 42 43 44 45 46 47 48 49 50
000
ASUS45 KBOU 192307
RWRCO

WEATHER ROUNDUP FOR COLORADO
NATIONAL WEATHER SERVICE DENVER/BOULDER CO
500 PM MDT THU OCT 19 2017

NOTE: "FAIR" INDICATES FEW OR NO CLOUDS BELOW 12000 FEET WITH NO
SIGNIFICANT WEATHER AND/OR OBSTRUCTIONS TO VISIBILITY.

COZ001>005-013-030-031-200000-
...NORTHWEST COLORADO...

CITY           SKY/WX    TMP DP  RH WIND       PRES   REMARKS
CRAIG          CLOUDY    66  26  22 SW8       29.99F
HAYDEN         FAIR      66  24  20 NW5       30.02F
MEEKER         PTSUNNY   67  30  25 S12       30.02S
RABBIT EARS PA FAIR      52  23  32 W6        30.25F
STEAMBOAT SPGS FAIR      68  23  18 CALM      30.02F
WALDEN         NOT AVBL
$$

COZ006>008-011-200000-
...WEST CENTRAL VALLEYS...

CITY           SKY/WX    TMP DP  RH WIND       PRES   REMARKS
GRAND JUNCTION FAIR      69  22  16 NW3       29.95F
MONTROSE       FAIR      71  26  18 NW7       30.00F
EAGLE          FAIR      69  25  19 W15       30.03S
RIFLE          FAIR      70  28  21 W16       29.97F
DELTA          FAIR      77  30  17 SW9       29.96F
NUCLA          PTSUNNY   70  28  21 SW10      30.06F
$$

COZ017>023-064>068-200000-
...SOUTHWEST COLORADO...

CITY           SKY/WX    TMP DP  RH WIND       PRES   REMARKS
DURANGO        PTSUNNY   68  27  21 SW10      30.08S
CORTEZ         FAIR      68  25  19 SW8       30.05F
PAGOSA SPRINGS FAIR      65  21  18 SW10G17   30.13F
TELLURIDE      CLOUDY    58  24  27 S8        30.21F
WOLF CREEK PAS FAIR      43  19  39 SW14G21   30.41S
$$

COZ009-010-012-014-032>034-037-058>063-200000-
...CENTRAL COLORADO...

CITY           SKY/WX    TMP DP  RH WIND       PRES   REMARKS
ASPEN          FAIR      66  21  18 N15G23    30.07S
BUENA VISTA    FAIR      64  13  14 SE9       30.09S
COPPER MTN     FAIR      50  18  27 NW10      30.34F
BERTHOUD PASS  CLOUDY    39  30  70 NE5       30.38S
COTTONWOOD PAS CLOUDY    63  14  15 SE7       30.21F
GUNNISON       FAIR      65  24  21 SW7       30.08F
KREMMLING      FAIR      73  16  11 SW10G16   30.05F
LEADVILLE      CLOUDY    58  15  18 W7        30.19S
MONARCH PASS   FAIR      48  18  29 W13       30.45F
SALIDA         FAIR      69  12  11 S14G20    30.13F
SUNLIGHT       CLOUDY    46  23  39 SW7       30.30F
WILKERSON PASS FAIR      52   5  15 CALM      30.33F
$$

COZ069>075-200000-
...SAN LUIS VALLEY/SANGRE DE CRISTO MOUNTAINS...

CITY           SKY/WX    TMP DP  RH WIND       PRES   REMARKS
ALAMOSA        FAIR      68  15  13 SE7       30.09F
DEL NORTE      FAIR      64  20  18 E5        30.13F
LA VETA PASS   FAIR      54  18  24 S15       30.37S
SAGUACHE       FAIR      63  16  16 S7        30.13F
$$

COZ035-036-038>040-200000-
...NORTHERN COLORADO FRONT RANGE...

CITY           SKY/WX    TMP DP  RH WIND       PRES   REMARKS
DENVER INTL AP PTSUNNY   70  30  22 N8        29.92F
DMNS CITY PARK   N/A     71  26  18 NE10      29.92S
AURORA         PTSUNNY   73  28  19 W5        29.94S
FRONT RANGE AP PTSUNNY   77  21  12 SE18      29.93S
ERIE MUNI ARPT FAIR      71  26  18 NE3       29.97S
BOULDER MUN AP FAIR      70  30  23 N3        29.93S
CENTENNIAL     PTSUNNY   71  24  17 S13       29.94F
BROOMFIELD     PTSUNNY   70  28  21 N6        29.95F
FORT COLLINS   NOT AVBL
LONGMONT       FAIR      69  35  27 CALM      29.93F
$$

COZ041-046-047-076>085-087-088-200000-
...PIKES PEAK/PALMER DIVIDE AND SOUTHERN FOOTHILLS...

CITY           SKY/WX    TMP DP  RH WIND       PRES   REMARKS
COLO. SPRINGS  CLOUDY    69  23  17 SE15      30.02F
A. F. ACADEMY  FAIR      67  22  18 SE14      30.03S
SCHRIEVER AFB  FAIR      68  19  15 S10       30.03F
CHEYENNE MTN   FAIR      62  24  23 S10       30.01S
ELLICOTT       FAIR     N/A N/A N/A S13       30.02S
FALCON         FAIR      65  19  16 S14       30.06F
FORT CARSON    FAIR      70  25  18 SE13      30.00S
LIMON          FAIR      70  30  22 SE16      29.98F
MONUMENT HILL  FAIR      63  23  22 S17       30.06S
CANON CITY     FAIR      73  32  21 E9        29.97S
WALSENBURG     FAIR      73  25  16 SE3       29.98F
TRINIDAD       FAIR      73  17  12 S13       29.98F
$$

COZ042>045-048>051-090-091-200000-
...NORTHEAST COLORADO...

CITY           SKY/WX    TMP DP  RH WIND       PRES   REMARKS
GREELEY ARPT   FAIR      67  38  34 CALM      29.90F
AKRON          FAIR      74  34  23 S16       29.92F
BURLINGTON     FAIR      76  44  32 S22G30    29.95F
WRAY           NOT AVBL
YUMA           FAIR      73  39  29 SE10      29.91S
STERLING       NOT AVBL
HOLYOKE        FAIR      79  37  22 S14G20    29.90R
FORT MORGAN    FAIR      77  22  13 S18       29.89S
$$

COZ086-089-092>099-200000-
...SOUTHEAST COLORADO...

CITY           SKY/WX    TMP DP  RH WIND       PRES   REMARKS
PUEBLO         FAIR      75  34  22 E13       29.92F
LA JUNTA       FAIR      78  35  21 SE13      29.91F
LAMAR          FAIR      78  38  23 S15       29.90F
SPRINGFIELD      N/A     70  48  45 S22       29.96S
$$



USA.gov is the U.S. government's official web portal to all federal, state and local government web resources and services.